Location: Lombard
(41.8800°N, 88.0080°W)
Time: 22:57:04
(UTC-05:00)

Tiros 1 - Pass Details

Date: 02 February 2023
Orbit: 628 x 662 km, 48.4° (Epoch: 20 March)

Event Time Altitude Azimuth Distance (km) Brightness Sun altitude
Rises 04:04:17 0° 290° (WNW) 2,926 - -33.6°
Reaches altitude 10° 04:06:44 10° 298° (WNW) 2,022 - -33.1°
Maximum altitude 04:11:06 39° 8° (N) 966 - -32.3°
Exits shadow 04:12:49 28° 53° (NE) 1,195 8.9 -32.0°
Drops below altitude 10° 04:15:31 10° 78° (ENE) 2,042 10.6 -31.5°
Sets 04:18:00 0° 86° (E) 2,957 11.7 -31.1°
